contact:dominique.lefevre@mio.osupytheas.fr, maurice.libes@osupytheas.fr, didier.mallarino@osupytheas.fr
Project:EMSO http://www.emso-fr.org/EMSO-France
Depth: 2436.0 m
Title:EMSO Ligure Ouest : Data MII capteur MICROCAT
DateTime_Computer,Latitude,Longitude,Temperature,Conductivity,Pressure,DateTime_Instrument
DateTime_Computer,Latitude,Longitude,degC,S m-1,dbar,DateTime_Instrument
2022-10-24T00:02:20Z,42.805,6.029,13.3026,4.60101,2470.553,2022-10-24T02:04:16Z
2022-10-24T00:05:23Z,42.805,6.029,13.3025,4.60093,2470.553,2022-10-24T02:07:19Z
2022-10-24T00:08:26Z,42.805,6.029,13.3024,4.60102,2470.577,2022-10-24T02:10:22Z
2022-10-24T00:11:29Z,42.805,6.029,13.3024,4.60093,2470.553,2022-10-24T02:13:25Z
2022-10-24T00:14:32Z,42.805,6.029,13.3028,4.60099,2470.544,2022-10-24T02:16:28Z
2022-10-24T00:17:35Z,42.805,6.029,13.3023,4.60088,2470.6,2022-10-24T02:19:31Z
2022-10-24T00:20:38Z,42.805,6.029,13.3018,4.60089,2470.577,2022-10-24T02:22:34Z
2022-10-24T00:23:41Z,42.805,6.029,13.3022,4.60090,2470.553,2022-10-24T02:25:37Z
2022-10-24T00:26:44Z,42.805,6.029,13.3021,4.60091,2470.53,2022-10-24T02:28:40Z
2022-10-24T00:29:47Z,42.805,6.029,13.3023,4.60085,2470.544,2022-10-24T02:31:43Z
2022-10-24T00:32:50Z,42.805,6.029,13.3026,4.60079,2470.53,2022-10-24T02:34:46Z
2022-10-24T00:35:53Z,42.805,6.029,13.3021,4.60084,2470.553,2022-10-24T02:37:50Z
2022-10-24T00:38:57Z,42.805,6.029,13.3021,4.60084,2470.544,2022-10-24T02:40:53Z
2022-10-24T00:42:00Z,42.805,6.029,13.3024,4.60106,2470.507,2022-10-24T02:43:56Z
2022-10-24T00:45:03Z,42.805,6.029,13.3038,4.60100,2470.553,2022-10-24T02:46:59Z
2022-10-24T00:48:06Z,42.805,6.029,13.3024,4.60093,2470.507,2022-10-24T02:50:02Z
2022-10-24T00:51:09Z,42.805,6.029,13.3021,4.60088,2470.553,2022-10-24T02:53:05Z
2022-10-24T00:54:12Z,42.805,6.029,13.3027,4.60093,2470.53,2022-10-24T02:56:08Z
2022-10-24T00:57:15Z,42.805,6.029,13.3016,4.60081,2470.507,2022-10-24T02:59:11Z
2022-10-24T01:00:18Z,42.805,6.029,13.3024,4.60089,2470.544,2022-10-24T03:02:14Z
2022-10-24T01:03:21Z,42.805,6.029,13.3016,4.60079,2470.53,2022-10-24T03:05:17Z
2022-10-24T01:06:24Z,42.805,6.029,13.3026,4.60092,2470.544,2022-10-24T03:08:20Z
2022-10-24T01:09:27Z,42.805,6.029,13.3024,4.60088,2470.53,2022-10-24T03:11:23Z
2022-10-24T01:12:30Z,42.805,6.029,13.3026,4.60095,2470.53,2022-10-24T03:14:26Z
2022-10-24T01:15:33Z,42.805,6.029,13.3025,4.60114,2470.553,2022-10-24T03:17:30Z
2022-10-24T01:18:37Z,42.805,6.029,13.3023,4.60091,2470.507,2022-10-24T03:20:33Z
2022-10-24T01:21:40Z,42.805,6.029,13.3023,4.60097,2470.53,2022-10-24T03:23:36Z
2022-10-24T01:24:43Z,42.805,6.029,13.3028,4.60095,2470.507,2022-10-24T03:26:39Z
2022-10-24T01:27:46Z,42.805,6.029,13.3023,4.60096,2470.553,2022-10-24T03:29:42Z
2022-10-24T01:30:49Z,42.805,6.029,13.3032,4.60094,2470.507,2022-10-24T03:32:45Z
2022-10-24T01:33:52Z,42.805,6.029,13.3026,4.60097,2470.53,2022-10-24T03:35:48Z
2022-10-24T01:36:55Z,42.805,6.029,13.3020,4.60090,2470.507,2022-10-24T03:38:51Z
2022-10-24T01:39:58Z,42.805,6.029,13.3020,4.60092,2470.53,2022-10-24T03:41:54Z
2022-10-24T01:43:01Z,42.805,6.029,13.3021,4.60092,2470.553,2022-10-24T03:44:57Z
2022-10-24T01:46:04Z,42.805,6.029,13.3020,4.60078,2470.544,2022-10-24T03:48:00Z
2022-10-24T01:49:07Z,42.805,6.029,13.3016,4.60087,2470.53,2022-10-24T03:51:03Z
2022-10-24T01:52:10Z,42.805,6.029,13.3021,4.60095,2470.483,2022-10-24T03:54:06Z
2022-10-24T01:55:13Z,42.805,6.029,13.3024,4.60097,2470.507,2022-10-24T03:57:10Z
2022-10-24T01:58:17Z,42.805,6.029,13.3024,4.60080,2470.553,2022-10-24T04:00:13Z
2022-10-24T02:01:20Z,42.805,6.029,13.3014,4.60075,2470.53,2022-10-24T04:03:16Z
2022-10-24T02:04:23Z,42.805,6.029,13.3021,4.60090,2470.53,2022-10-24T04:06:19Z
2022-10-24T02:07:26Z,42.805,6.029,13.3015,4.60092,2470.53,2022-10-24T04:09:22Z
2022-10-24T02:10:29Z,42.805,6.029,13.3025,4.60084,2470.53,2022-10-24T04:12:25Z
2022-10-24T02:13:32Z,42.805,6.029,13.3022,4.60087,2470.544,2022-10-24T04:15:28Z
2022-10-24T02:16:35Z,42.805,6.029,13.3027,4.60084,2470.577,2022-10-24T04:18:31Z
2022-10-24T02:19:38Z,42.805,6.029,13.3018,4.60111,2470.567,2022-10-24T04:21:34Z
2022-10-24T02:22:41Z,42.805,6.029,13.3017,4.60092,2470.544,2022-10-24T04:24:37Z
2022-10-24T02:25:44Z,42.805,6.029,13.3021,4.60090,2470.53,2022-10-24T04:27:40Z
2022-10-24T02:28:47Z,42.805,6.029,13.3014,4.60081,2470.577,2022-10-24T04:30:43Z
2022-10-24T02:31:50Z,42.805,6.029,13.3019,4.60100,2470.567,2022-10-24T04:33:46Z
2022-10-24T02:34:54Z,42.805,6.029,13.3025,4.60079,2470.553,2022-10-24T04:36:50Z
2022-10-24T02:37:57Z,42.805,6.029,13.3025,4.60074,2470.567,2022-10-24T04:39:53Z
2022-10-24T02:41:00Z,42.805,6.029,13.3018,4.60072,2470.567,2022-10-24T04:42:56Z
2022-10-24T02:44:03Z,42.805,6.029,13.3022,4.60077,2470.591,2022-10-24T04:45:59Z
2022-10-24T02:47:06Z,42.805,6.029,13.3018,4.60077,2470.567,2022-10-24T04:49:02Z
2022-10-24T02:50:09Z,42.805,6.029,13.3014,4.60080,2470.553,2022-10-24T04:52:05Z
2022-10-24T02:53:12Z,42.805,6.029,13.3020,4.60076,2470.577,2022-10-24T04:55:08Z
2022-10-24T02:56:15Z,42.805,6.029,13.3020,4.60076,2470.577,2022-10-24T04:58:11Z
2022-10-24T02:59:18Z,42.805,6.029,13.3025,4.60091,2470.577,2022-10-24T05:01:14Z
2022-10-24T03:02:21Z,42.805,6.029,13.3015,4.60092,2470.553,2022-10-24T05:04:17Z
2022-10-24T03:05:24Z,42.805,6.029,13.3012,4.60078,2470.591,2022-10-24T05:07:20Z
2022-10-24T03:08:27Z,42.805,6.029,13.3017,4.60078,2470.591,2022-10-24T05:10:23Z
2022-10-24T03:11:30Z,42.805,6.029,13.3019,4.60082,2470.577,2022-10-24T05:13:26Z
2022-10-24T03:14:34Z,42.805,6.029,13.3024,4.60070,2470.553,2022-10-24T05:16:30Z
2022-10-24T03:17:37Z,42.805,6.029,13.3018,4.60077,2470.591,2022-10-24T05:19:33Z
2022-10-24T03:20:40Z,42.805,6.029,13.3015,4.60075,2470.577,2022-10-24T05:22:36Z
2022-10-24T03:23:43Z,42.805,6.029,13.3018,4.60072,2470.591,2022-10-24T05:25:39Z
2022-10-24T03:26:46Z,42.805,6.029,13.3015,4.60071,2470.6,2022-10-24T05:28:42Z
2022-10-24T03:29:49Z,42.805,6.029,13.3015,4.60086,2470.577,2022-10-24T05:31:45Z
2022-10-24T03:32:52Z,42.805,6.029,13.3017,4.60089,2470.6,2022-10-24T05:34:48Z
2022-10-24T03:35:55Z,42.805,6.029,13.3019,4.60080,2470.614,2022-10-24T05:37:51Z
2022-10-24T03:38:58Z,42.805,6.029,13.3021,4.60079,2470.614,2022-10-24T05:40:54Z
2022-10-24T03:42:01Z,42.805,6.029,13.3021,4.60068,2470.614,2022-10-24T05:43:57Z
2022-10-24T03:45:04Z,42.805,6.029,13.3021,4.60072,2470.624,2022-10-24T05:47:00Z
2022-10-24T03:48:07Z,42.805,6.029,13.3014,4.60072,2470.624,2022-10-24T05:50:03Z
2022-10-24T03:51:10Z,42.805,6.029,13.3019,4.60071,2470.624,2022-10-24T05:53:07Z
2022-10-24T03:54:14Z,42.805,6.029,13.3021,4.60079,2470.624,2022-10-24T05:56:10Z
2022-10-24T03:57:17Z,42.805,6.029,13.3026,4.60084,2470.624,2022-10-24T05:59:13Z
2022-10-24T04:00:20Z,42.805,6.029,13.3019,4.60074,2470.661,2022-10-24T06:02:16Z
2022-10-24T04:03:23Z,42.805,6.029,13.3015,4.60072,2470.624,2022-10-24T06:05:19Z
2022-10-24T04:06:26Z,42.805,6.029,13.3017,4.60069,2470.646,2022-10-24T06:08:22Z
2022-10-24T04:09:29Z,42.805,6.029,13.3022,4.60075,2470.637,2022-10-24T06:11:25Z
2022-10-24T04:12:32Z,42.805,6.029,13.3021,4.60078,2470.646,2022-10-24T06:14:28Z
2022-10-24T04:15:35Z,42.805,6.029,13.3028,4.60080,2470.646,2022-10-24T06:17:31Z
2022-10-24T04:18:38Z,42.805,6.029,13.3021,4.60088,2470.661,2022-10-24T06:20:34Z
2022-10-24T04:21:41Z,42.805,6.029,13.3020,4.60084,2470.637,2022-10-24T06:23:37Z
2022-10-24T04:24:44Z,42.805,6.029,13.3016,4.60087,2470.646,2022-10-24T06:26:40Z
2022-10-24T04:27:47Z,42.805,6.029,13.3024,4.60082,2470.684,2022-10-24T06:29:43Z
2022-10-24T04:30:50Z,42.805,6.029,13.3026,4.60077,2470.67,2022-10-24T06:32:46Z
2022-10-24T04:33:54Z,42.805,6.029,13.3019,4.60084,2470.637,2022-10-24T06:35:50Z
2022-10-24T04:36:57Z,42.805,6.029,13.3015,4.60066,2470.646,2022-10-24T06:38:53Z
2022-10-24T04:40:00Z,42.805,6.029,13.3017,4.60078,2470.646,2022-10-24T06:41:56Z
2022-10-24T04:43:03Z,42.805,6.029,13.3017,4.60089,2470.693,2022-10-24T06:44:59Z
2022-10-24T04:46:06Z,42.805,6.029,13.3022,4.60087,2470.67,2022-10-24T06:48:02Z
2022-10-24T04:49:09Z,42.805,6.029,13.3028,4.60074,2470.693,2022-10-24T06:51:05Z
2022-10-24T04:52:12Z,42.805,6.029,13.3014,4.60072,2470.646,2022-10-24T06:54:08Z
2022-10-24T04:55:15Z,42.805,6.029,13.3015,4.60069,2470.67,2022-10-24T06:57:11Z
2022-10-24T04:58:18Z,42.805,6.029,13.3015,4.60069,2470.693,2022-10-24T07:00:14Z
2022-10-24T05:01:21Z,42.805,6.029,13.3015,4.60073,2470.684,2022-10-24T07:03:17Z
2022-10-24T05:04:24Z,42.805,6.029,13.3014,4.60070,2470.693,2022-10-24T07:06:20Z
2022-10-24T05:07:27Z,42.805,6.029,13.3022,4.60067,2470.693,2022-10-24T07:09:23Z
2022-10-24T05:10:30Z,42.805,6.029,13.3027,4.60072,2470.717,2022-10-24T07:12:26Z
2022-10-24T05:13:34Z,42.805,6.029,13.3020,4.60073,2470.684,2022-10-24T07:15:30Z
2022-10-24T05:16:37Z,42.805,6.029,13.3018,4.60073,2470.717,2022-10-24T07:18:33Z
2022-10-24T05:19:40Z,42.805,6.029,13.3015,4.60081,2470.67,2022-10-24T07:21:36Z
2022-10-24T05:22:43Z,42.805,6.029,13.3026,4.60075,2470.707,2022-10-24T07:24:39Z
2022-10-24T05:25:46Z,42.805,6.029,13.3015,4.60073,2470.693,2022-10-24T07:27:42Z
2022-10-24T05:28:49Z,42.805,6.029,13.3018,4.60074,2470.684,2022-10-24T07:30:45Z
2022-10-24T05:31:52Z,42.805,6.029,13.3021,4.60070,2470.646,2022-10-24T07:33:48Z
2022-10-24T05:34:55Z,42.805,6.029,13.3011,4.60064,2470.684,2022-10-24T07:36:51Z
2022-10-24T05:37:58Z,42.805,6.029,13.3017,4.60073,2470.693,2022-10-24T07:39:54Z
2022-10-24T05:41:01Z,42.805,6.029,13.3023,4.60072,2470.67,2022-10-24T07:42:57Z
2022-10-24T05:44:04Z,42.805,6.029,13.3017,4.60072,2470.707,2022-10-24T07:46:00Z
2022-10-24T05:47:07Z,42.805,6.029,13.3023,4.60074,2470.717,2022-10-24T07:49:03Z
2022-10-24T05:50:10Z,42.805,6.029,13.3019,4.60071,2470.693,2022-10-24T07:52:07Z
2022-10-24T05:53:14Z,42.805,6.029,13.3021,4.60072,2470.693,2022-10-24T07:55:10Z
2022-10-24T05:56:17Z,42.805,6.029,13.3024,4.60086,2470.67,2022-10-24T07:58:13Z
2022-10-24T05:59:20Z,42.805,6.029,13.3019,4.60081,2470.707,2022-10-24T08:01:16Z
2022-10-24T06:02:23Z,42.805,6.029,13.3023,4.60076,2470.717,2022-10-24T08:04:19Z
2022-10-24T06:05:26Z,42.805,6.029,13.3029,4.60081,2470.73,2022-10-24T08:07:22Z
2022-10-24T06:08:29Z,42.805,6.029,13.3021,4.60078,2470.684,2022-10-24T08:10:25Z
2022-10-24T06:11:32Z,42.805,6.029,13.3019,4.60097,2470.693,2022-10-24T08:13:28Z
2022-10-24T06:14:35Z,42.805,6.029,13.3020,4.60072,2470.693,2022-10-24T08:16:31Z
2022-10-24T06:17:38Z,42.805,6.029,13.3021,4.60087,2470.717,2022-10-24T08:19:34Z
2022-10-24T06:20:41Z,42.805,6.029,13.3019,4.60068,2470.67,2022-10-24T08:22:37Z
2022-10-24T06:23:44Z,42.805,6.029,13.3022,4.60070,2470.67,2022-10-24T08:25:40Z
2022-10-24T06:26:47Z,42.805,6.029,13.3024,4.60070,2470.707,2022-10-24T08:28:43Z
2022-10-24T06:29:50Z,42.805,6.029,13.3025,4.60075,2470.717,2022-10-24T08:31:47Z
2022-10-24T06:32:54Z,42.805,6.029,13.3021,4.60088,2470.717,2022-10-24T08:34:50Z
2022-10-24T06:35:57Z,42.805,6.029,13.3021,4.60079,2470.67,2022-10-24T08:37:53Z
2022-10-24T06:39:00Z,42.805,6.029,13.3015,4.60084,2470.693,2022-10-24T08:40:56Z
2022-10-24T06:42:03Z,42.805,6.029,13.3022,4.60085,2470.67,2022-10-24T08:43:59Z
2022-10-24T06:45:06Z,42.805,6.029,13.3024,4.60081,2470.717,2022-10-24T08:47:02Z
2022-10-24T06:48:09Z,42.805,6.029,13.3023,4.60070,2470.684,2022-10-24T08:50:05Z
2022-10-24T06:51:12Z,42.805,6.029,13.3020,4.60081,2470.67,2022-10-24T08:53:08Z
2022-10-24T06:54:15Z,42.805,6.029,13.3015,4.60087,2470.707,2022-10-24T08:56:11Z
2022-10-24T06:57:18Z,42.805,6.029,13.3023,4.60089,2470.693,2022-10-24T08:59:14Z
2022-10-24T07:00:21Z,42.805,6.029,13.3024,4.60102,2470.693,2022-10-24T09:02:17Z
2022-10-24T07:03:24Z,42.805,6.029,13.3019,4.60073,2470.693,2022-10-24T09:05:20Z
2022-10-24T07:06:27Z,42.805,6.029,13.3018,4.60072,2470.73,2022-10-24T09:08:23Z
2022-10-24T07:09:31Z,42.805,6.029,13.3024,4.60079,2470.684,2022-10-24T09:11:27Z
2022-10-24T07:12:34Z,42.805,6.029,13.3026,4.60096,2470.707,2022-10-24T09:14:30Z
2022-10-24T07:15:37Z,42.805,6.029,13.3018,4.60087,2470.684,2022-10-24T09:17:33Z
2022-10-24T07:18:40Z,42.805,6.029,13.3021,4.60078,2470.73,2022-10-24T09:20:36Z
2022-10-24T07:21:43Z,42.805,6.029,13.3020,4.60069,2470.707,2022-10-24T09:23:39Z
2022-10-24T07:24:46Z,42.805,6.029,13.3015,4.60079,2470.707,2022-10-24T09:26:42Z
2022-10-24T07:27:49Z,42.805,6.029,13.3016,4.60081,2470.67,2022-10-24T09:29:45Z
2022-10-24T07:30:52Z,42.805,6.029,13.3025,4.60074,2470.67,2022-10-24T09:32:48Z
2022-10-24T07:33:55Z,42.805,6.029,13.3017,4.60074,2470.684,2022-10-24T09:35:51Z
2022-10-24T07:36:58Z,42.805,6.029,13.3015,4.60070,2470.693,2022-10-24T09:38:54Z
2022-10-24T07:40:01Z,42.805,6.029,13.3024,4.60070,2470.67,2022-10-24T09:41:57Z
2022-10-24T07:43:04Z,42.805,6.029,13.3015,4.60071,2470.67,2022-10-24T09:45:00Z
2022-10-24T07:46:07Z,42.805,6.029,13.3019,4.60087,2470.67,2022-10-24T09:48:04Z
2022-10-24T07:49:11Z,42.805,6.029,13.3019,4.60073,2470.693,2022-10-24T09:51:07Z
2022-10-24T07:52:14Z,42.805,6.029,13.3022,4.60064,2470.67,2022-10-24T09:54:10Z
2022-10-24T07:55:17Z,42.805,6.029,13.3026,4.60077,2470.707,2022-10-24T09:57:13Z
2022-10-24T07:58:20Z,42.805,6.029,13.3029,4.60075,2470.684,2022-10-24T10:00:16Z
2022-10-24T08:01:23Z,42.805,6.029,13.3024,4.60081,2470.67,2022-10-24T10:03:19Z
2022-10-24T08:04:26Z,42.805,6.029,13.3018,4.60081,2470.684,2022-10-24T10:06:22Z
2022-10-24T08:07:29Z,42.805,6.029,13.3021,4.60085,2470.67,2022-10-24T10:09:25Z
2022-10-24T08:10:32Z,42.805,6.029,13.3021,4.60069,2470.707,2022-10-24T10:12:28Z
2022-10-24T08:13:35Z,42.805,6.029,13.3021,4.60069,2470.646,2022-10-24T10:15:31Z
2022-10-24T08:16:38Z,42.805,6.029,13.3024,4.60074,2470.624,2022-10-24T10:18:34Z
2022-10-24T08:19:41Z,42.805,6.029,13.3021,4.60074,2470.684,2022-10-24T10:21:37Z
2022-10-24T08:22:44Z,42.805,6.029,13.3022,4.60075,2470.661,2022-10-24T10:24:40Z
2022-10-24T08:25:47Z,42.805,6.029,13.3018,4.60081,2470.684,2022-10-24T10:27:44Z
2022-10-24T08:28:51Z,42.805,6.029,13.3021,4.60072,2470.661,2022-10-24T10:30:47Z
2022-10-24T08:31:54Z,42.805,6.029,13.3023,4.60082,2470.661,2022-10-24T10:33:50Z
2022-10-24T08:34:57Z,42.805,6.029,13.3017,4.60074,2470.661,2022-10-24T10:36:53Z
2022-10-24T08:38:00Z,42.805,6.029,13.3021,4.60073,2470.624,2022-10-24T10:39:56Z
2022-10-24T08:41:03Z,42.805,6.029,13.3021,4.60077,2470.646,2022-10-24T10:42:59Z
2022-10-24T08:44:06Z,42.805,6.029,13.3019,4.60073,2470.624,2022-10-24T10:46:02Z
2022-10-24T08:47:09Z,42.805,6.029,13.3021,4.60073,2470.624,2022-10-24T10:49:05Z
2022-10-24T08:50:12Z,42.805,6.029,13.3019,4.60076,2470.624,2022-10-24T10:52:08Z
2022-10-24T08:53:15Z,42.805,6.029,13.3025,4.60074,2470.646,2022-10-24T10:55:11Z
2022-10-24T08:56:18Z,42.805,6.029,13.3029,4.60081,2470.6,2022-10-24T10:58:14Z
2022-10-24T08:59:21Z,42.805,6.029,13.3022,4.60073,2470.624,2022-10-24T11:01:17Z
2022-10-24T09:02:24Z,42.805,6.029,13.3018,4.60074,2470.624,2022-10-24T11:04:21Z
2022-10-24T09:05:28Z,42.805,6.029,13.3024,4.60078,2470.586,2022-10-24T11:07:24Z
2022-10-24T09:08:31Z,42.805,6.029,13.3021,4.60074,2470.624,2022-10-24T11:10:27Z
2022-10-24T09:11:34Z,42.805,6.029,13.3016,4.60074,2470.6,2022-10-24T11:13:30Z
2022-10-24T09:14:37Z,42.805,6.029,13.3019,4.60081,2470.614,2022-10-24T11:16:33Z
2022-10-24T09:17:40Z,42.805,6.029,13.3028,4.60084,2470.577,2022-10-24T11:19:36Z
2022-10-24T09:20:43Z,42.805,6.029,13.3024,4.60077,2470.577,2022-10-24T11:22:39Z
2022-10-24T09:23:46Z,42.805,6.029,13.3018,4.60072,2470.6,2022-10-24T11:25:42Z
2022-10-24T09:26:49Z,42.805,6.029,13.3014,4.60074,2470.591,2022-10-24T11:28:45Z
2022-10-24T09:29:52Z,42.805,6.029,13.3015,4.60069,2470.614,2022-10-24T11:31:48Z
2022-10-24T09:32:55Z,42.805,6.029,13.3024,4.60082,2470.624,2022-10-24T11:34:51Z
2022-10-24T09:35:58Z,42.805,6.029,13.3015,4.60072,2470.624,2022-10-24T11:37:54Z
2022-10-24T09:39:01Z,42.805,6.029,13.3019,4.60069,2470.6,2022-10-24T11:40:58Z
2022-10-24T09:42:05Z,42.805,6.029,13.3024,4.60082,2470.577,2022-10-24T11:44:01Z
2022-10-24T09:45:08Z,42.805,6.029,13.3020,4.60074,2470.577,2022-10-24T11:47:04Z
2022-10-24T09:48:11Z,42.805,6.029,13.3024,4.60079,2470.614,2022-10-24T11:50:07Z
2022-10-24T09:51:14Z,42.805,6.029,13.3015,4.60078,2470.6,2022-10-24T11:53:10Z
2022-10-24T09:54:17Z,42.805,6.029,13.3016,4.60076,2470.577,2022-10-24T11:56:13Z
2022-10-24T09:57:20Z,42.805,6.029,13.3024,4.60090,2470.591,2022-10-24T11:59:16Z
2022-10-24T10:00:23Z,42.805,6.029,13.3020,4.60067,2470.577,2022-10-24T12:02:19Z
2022-10-24T10:03:26Z,42.805,6.029,13.3022,4.60092,2470.577,2022-10-24T12:05:22Z
2022-10-24T10:06:29Z,42.805,6.029,13.3029,4.60079,2470.553,2022-10-24T12:08:25Z
2022-10-24T10:09:32Z,42.805,6.029,13.3029,4.60097,2470.577,2022-10-24T12:11:28Z
2022-10-24T10:12:35Z,42.805,6.029,13.3017,4.60085,2470.577,2022-10-24T12:14:31Z
2022-10-24T10:15:38Z,42.805,6.029,13.3021,4.60076,2470.53,2022-10-24T12:17:35Z
2022-10-24T10:18:42Z,42.805,6.029,13.3021,4.60089,2470.577,2022-10-24T12:20:38Z
2022-10-24T10:21:45Z,42.805,6.029,13.3024,4.60086,2470.567,2022-10-24T12:23:41Z
2022-10-24T10:24:48Z,42.805,6.029,13.3024,4.60093,2470.577,2022-10-24T12:26:44Z
2022-10-24T10:27:51Z,42.805,6.029,13.3018,4.60113,2470.6,2022-10-24T12:29:47Z
2022-10-24T10:30:54Z,42.805,6.029,13.3030,4.60082,2470.577,2022-10-24T12:32:50Z
2022-10-24T10:33:57Z,42.805,6.029,13.3021,4.60075,2470.577,2022-10-24T12:35:53Z
2022-10-24T10:37:00Z,42.805,6.029,13.3026,4.60089,2470.553,2022-10-24T12:38:56Z
2022-10-24T10:40:03Z,42.805,6.029,13.3027,4.60088,2470.591,2022-10-24T12:41:59Z
2022-10-24T10:43:06Z,42.805,6.029,13.3019,4.60081,2470.553,2022-10-24T12:45:02Z
2022-10-24T10:46:09Z,42.805,6.029,13.3021,4.60072,2470.553,2022-10-24T12:48:05Z
2022-10-24T10:49:12Z,42.805,6.029,13.3031,4.60084,2470.591,2022-10-24T12:51:08Z
2022-10-24T10:52:15Z,42.805,6.029,13.3021,4.60084,2470.553,2022-10-24T12:54:12Z
2022-10-24T10:55:19Z,42.805,6.029,13.3024,4.60084,2470.516,2022-10-24T12:57:15Z
2022-10-24T10:58:22Z,42.805,6.029,13.3021,4.60074,2470.553,2022-10-24T13:00:18Z
2022-10-24T11:01:25Z,42.805,6.029,13.3016,4.60095,2470.544,2022-10-24T13:03:21Z
2022-10-24T11:04:28Z,42.805,6.029,13.3028,4.60102,2470.567,2022-10-24T13:06:24Z
2022-10-24T11:07:31Z,42.805,6.029,13.3017,4.60079,2470.53,2022-10-24T13:09:27Z
2022-10-24T11:10:34Z,42.805,6.029,13.3029,4.60079,2470.544,2022-10-24T13:12:30Z
2022-10-24T11:13:37Z,42.805,6.029,13.3031,4.60096,2470.544,2022-10-24T13:15:33Z
2022-10-24T11:16:40Z,42.805,6.029,13.3021,4.60075,2470.553,2022-10-24T13:18:36Z
2022-10-24T11:19:43Z,42.805,6.029,13.3018,4.60069,2470.544,2022-10-24T13:21:39Z
2022-10-24T11:22:46Z,42.805,6.029,13.3021,4.60077,2470.553,2022-10-24T13:24:42Z
2022-10-24T11:25:49Z,42.805,6.029,13.3024,4.60097,2470.544,2022-10-24T13:27:45Z
2022-10-24T11:28:52Z,42.805,6.029,13.3024,4.60070,2470.507,2022-10-24T13:30:49Z
2022-10-24T11:31:56Z,42.805,6.029,13.3014,4.60067,2470.53,2022-10-24T13:33:52Z
2022-10-24T11:34:59Z,42.805,6.029,13.3020,4.60079,2470.553,2022-10-24T13:36:55Z
2022-10-24T11:38:02Z,42.805,6.029,13.3022,4.60081,2470.544,2022-10-24T13:39:58Z
2022-10-24T11:41:05Z,42.805,6.029,13.3016,4.60076,2470.53,2022-10-24T13:43:01Z
2022-10-24T11:44:08Z,42.805,6.029,13.3028,4.60097,2470.52,2022-10-24T13:46:04Z
2022-10-24T11:47:11Z,42.805,6.029,13.3031,4.60092,2470.567,2022-10-24T13:49:07Z
2022-10-24T11:50:14Z,42.805,6.029,13.3029,4.60091,2470.53,2022-10-24T13:52:10Z
2022-10-24T11:53:17Z,42.805,6.029,13.3020,4.60079,2470.493,2022-10-24T13:55:13Z
2022-10-24T11:56:20Z,42.805,6.029,13.3021,4.60081,2470.483,2022-10-24T13:58:16Z
2022-10-24T11:59:23Z,42.805,6.029,13.3022,4.60073,2470.53,2022-10-24T14:01:19Z
2022-10-24T12:02:26Z,42.805,6.029,13.3015,4.60078,2470.52,2022-10-24T14:04:22Z
2022-10-24T12:05:29Z,42.805,6.029,13.3016,4.60072,2470.52,2022-10-24T14:07:25Z
2022-10-24T12:08:32Z,42.805,6.029,13.3014,4.60071,2470.507,2022-10-24T14:10:29Z
2022-10-24T12:11:36Z,42.805,6.029,13.3014,4.60087,2470.507,2022-10-24T14:13:32Z
2022-10-24T12:14:39Z,42.805,6.029,13.3020,4.60089,2470.483,2022-10-24T14:16:35Z
2022-10-24T12:17:42Z,42.805,6.029,13.3019,4.60081,2470.507,2022-10-24T14:19:38Z
2022-10-24T12:20:45Z,42.805,6.029,13.3021,4.60083,2470.507,2022-10-24T14:22:41Z
2022-10-24T12:23:48Z,42.805,6.029,13.3034,4.60093,2470.507,2022-10-24T14:25:44Z
2022-10-24T12:26:51Z,42.805,6.029,13.3019,4.60097,2470.52,2022-10-24T14:28:47Z
2022-10-24T12:29:54Z,42.805,6.029,13.3019,4.60085,2470.52,2022-10-24T14:31:50Z
2022-10-24T12:32:57Z,42.805,6.029,13.3025,4.60081,2470.53,2022-10-24T14:34:53Z
2022-10-24T12:36:00Z,42.805,6.029,13.3028,4.60088,2470.483,2022-10-24T14:37:56Z
2022-10-24T12:39:03Z,42.805,6.029,13.3019,4.60084,2470.507,2022-10-24T14:40:59Z
2022-10-24T12:42:06Z,42.805,6.029,13.3026,4.60096,2470.507,2022-10-24T14:44:03Z
2022-10-24T12:45:10Z,42.805,6.029,13.3022,4.60087,2470.497,2022-10-24T14:47:06Z
2022-10-24T12:48:13Z,42.805,6.029,13.3014,4.60087,2470.497,2022-10-24T14:50:09Z
2022-10-24T12:51:16Z,42.805,6.029,13.3019,4.60089,2470.474,2022-10-24T14:53:12Z
2022-10-24T12:54:19Z,42.805,6.029,13.3015,4.60084,2470.483,2022-10-24T14:56:15Z
2022-10-24T12:57:22Z,42.805,6.029,13.3014,4.60080,2470.483,2022-10-24T14:59:18Z
2022-10-24T13:00:25Z,42.805,6.029,13.3019,4.60105,2470.483,2022-10-24T15:02:21Z
2022-10-24T13:03:28Z,42.805,6.029,13.3017,4.60083,2470.483,2022-10-24T15:05:24Z
2022-10-24T13:06:31Z,42.805,6.029,13.3021,4.60089,2470.483,2022-10-24T15:08:27Z
2022-10-24T13:09:34Z,42.805,6.029,13.3019,4.60083,2470.507,2022-10-24T15:11:30Z
2022-10-24T13:12:37Z,42.805,6.029,13.3019,4.60079,2470.497,2022-10-24T15:14:33Z
2022-10-24T13:15:40Z,42.805,6.029,13.3016,4.60071,2470.483,2022-10-24T15:17:36Z
2022-10-24T13:18:43Z,42.805,6.029,13.3021,4.60074,2470.446,2022-10-24T15:20:39Z
2022-10-24T13:21:46Z,42.805,6.029,13.3019,4.60073,2470.483,2022-10-24T15:23:43Z
2022-10-24T13:24:50Z,42.805,6.029,13.3037,4.60116,2470.507,2022-10-24T15:26:46Z
2022-10-24T13:27:53Z,42.805,6.029,13.3023,4.60095,2470.483,2022-10-24T15:29:49Z
2022-10-24T13:30:56Z,42.805,6.029,13.3019,4.60083,2470.483,2022-10-24T15:32:52Z
2022-10-24T13:33:59Z,42.805,6.029,13.3021,4.60085,2470.47,2022-10-24T15:35:55Z
2022-10-24T13:37:02Z,42.805,6.029,13.3019,4.60095,2470.483,2022-10-24T15:38:58Z
2022-10-24T13:40:05Z,42.805,6.029,13.3026,4.60098,2470.497,2022-10-24T15:42:01Z
2022-10-24T13:43:08Z,42.805,6.029,13.3028,4.60097,2470.507,2022-10-24T15:45:04Z
2022-10-24T13:46:11Z,42.805,6.029,13.3022,4.60104,2470.497,2022-10-24T15:48:07Z
2022-10-24T13:49:14Z,42.805,6.029,13.3024,4.60103,2470.497,2022-10-24T15:51:10Z
2022-10-24T13:52:17Z,42.805,6.029,13.3018,4.60103,2470.52,2022-10-24T15:54:13Z
2022-10-24T13:55:20Z,42.805,6.029,13.3021,4.60095,2470.483,2022-10-24T15:57:16Z
2022-10-24T13:58:23Z,42.805,6.029,13.3015,4.60115,2470.483,2022-10-24T16:00:20Z
2022-10-24T14:01:27Z,42.805,6.029,13.3022,4.60099,2470.483,2022-10-24T16:03:23Z
2022-10-24T14:04:30Z,42.805,6.029,13.3020,4.60097,2470.52,2022-10-24T16:06:26Z
2022-10-24T14:07:33Z,42.805,6.029,13.3016,4.60078,2470.52,2022-10-24T16:09:29Z
2022-10-24T14:10:36Z,42.805,6.029,13.3034,4.60113,2470.507,2022-10-24T16:12:32Z
2022-10-24T14:13:39Z,42.805,6.029,13.3026,4.60106,2470.507,2022-10-24T16:15:35Z
2022-10-24T14:16:42Z,42.805,6.029,13.3019,4.60102,2470.483,2022-10-24T16:18:38Z
2022-10-24T14:19:45Z,42.805,6.029,13.3031,4.60117,2470.493,2022-10-24T16:21:41Z
2022-10-24T14:22:48Z,42.805,6.029,13.3023,4.60107,2470.53,2022-10-24T16:24:44Z
2022-10-24T14:25:51Z,42.805,6.029,13.3023,4.60092,2470.52,2022-10-24T16:27:47Z
2022-10-24T14:28:54Z,42.805,6.029,13.3025,4.60102,2470.53,2022-10-24T16:30:50Z
2022-10-24T14:31:57Z,42.805,6.029,13.3022,4.60116,2470.53,2022-10-24T16:33:53Z
2022-10-24T14:35:00Z,42.805,6.029,13.3019,4.60102,2470.53,2022-10-24T16:36:57Z
2022-10-24T14:38:04Z,42.805,6.029,13.3034,4.60112,2470.52,2022-10-24T16:40:00Z
2022-10-24T14:41:07Z,42.805,6.029,13.3023,4.60082,2470.544,2022-10-24T16:43:03Z
2022-10-24T14:44:10Z,42.805,6.029,13.3020,4.60095,2470.53,2022-10-24T16:46:06Z
2022-10-24T14:47:13Z,42.805,6.029,13.3025,4.60088,2470.52,2022-10-24T16:49:09Z
2022-10-24T14:50:16Z,42.805,6.029,13.3024,4.60094,2470.53,2022-10-24T16:52:12Z
2022-10-24T14:53:19Z,42.805,6.029,13.3023,4.60114,2470.567,2022-10-24T16:55:15Z
2022-10-24T14:56:22Z,42.805,6.029,13.3019,4.60125,2470.544,2022-10-24T16:58:18Z
2022-10-24T14:59:25Z,42.805,6.029,13.3034,4.60113,2470.544,2022-10-24T17:01:21Z
2022-10-24T15:02:28Z,42.805,6.029,13.3015,4.60122,2470.53,2022-10-24T17:04:24Z